Location: *
(48.4333°N, 5.0333°W)
Time: 08:57:09
(UTC+00:00)

Cosmos 1980 Rocket - Visible Passes

Search period start: 03 August 2020 00:00
Search period end: 13 August 2020 00:00
Orbit: 828 x 851 km, 71.0° (Epoch: 03 August)

Date Brightness Start Highest point End Pass type
(mag) Time Alt. Az. Time Alt. Az. Time Alt. Az.
03 Aug 2.6 21:55:15 10° NNW 22:00:49 52° NE 22:03:53 25° ESE visible
03 Aug 3.3 23:39:42 10° NW 23:44:33 30° WSW 23:45:38 28° SW visible
04 Aug 2.7 21:39:33 10° NNW 21:45:05 49° NE 21:48:27 23° ESE visible
04 Aug 3.3 23:23:57 10° NW 23:28:53 31° WSW 23:30:13 28° SW visible
05 Aug 2.8 21:23:52 10° NNW 21:29:22 47° NE 21:33:04 20° ESE visible
05 Aug 3.3 23:08:11 10° NW 23:13:12 33° WSW 23:14:49 28° SW visible
06 Aug 2.8 21:08:10 10° NNW 21:13:38 44° NE 21:17:42 17° ESE visible
06 Aug 3.2 22:52:26 10° NW 22:57:32 35° WSW 22:59:28 28° SW visible
07 Aug 2.9 20:52:29 10° NNW 20:57:54 42° NE 21:02:22 14° ESE visible
07 Aug 3.2 22:36:40 10° NW 22:41:51 37° WSW 22:44:08 26° SSW visible
08 Aug 3.0 20:36:48 10° NNW 20:42:10 40° NE 20:47:05 12° ESE visible
08 Aug 3.1 22:20:55 10° NW 22:26:10 39° WSW 22:28:51 25° SSW visible
09 Aug 3.0 20:21:07 10° NNW 20:26:26 38° NE 20:31:40 10° ESE visible
09 Aug 3.1 22:05:11 10° NW 22:10:29 42° WSW 22:13:36 22° SSW visible
10 Aug 3.0 21:49:26 10° NW 21:54:49 44° WSW 21:58:24 20° S visible
11 Aug 2.9 21:33:42 10° NW 21:39:07 47° WSW 21:43:14 17° S visible
12 Aug 2.9 21:17:58 10° NW 21:23:27 50° WSW 21:28:07 14° S visible
